User: anonymous   Login
Location: Unspecified
(0.0000°N, 0.0000°E)
Time: 09:12:36
(UTC+00:00)
Language:

Kosmos-2184 - Orbit

View from above orbital plane
View from above orbital plane
View from above satellite
View from above satellite

Ground track
Ground track

The orbit data is extracted from the following two-line orbital elements,

1 21937U 92020A   17086.94686662 +.00000023 +00000-0 +79034-5 0  9997
2 21937 082.9292 086.3391 0033866 156.1798 263.3181 13.73138442250062
Epoch (UTC): 27 March 2017 22:43:29
Eccentricity: 0.0033866
inclination: 82.9292°
perigee height: 963 km
apogee height: 1013 km
right ascension of ascending node: 86.3391°
argument of perigee: 156.1798°
revolutions per day: 13.73138442
mean anomaly at epoch: 263.3181°
orbit number at epoch: 25006

The dashed part of the orbit path shows where the satellite is in the earth's shadow,  

DLR